Regional Weather Roundup
Issued by NWS Raleigh/Durham, NC

Home | Current Version | Previous Version | Text Only | Print | Product List | Glossary On
Versions: 1 2 3 4 5 6 7 8 9 10 11 12 13 14 15 16 17 18 19 20 21 22 23 24 25 26 27 28 29 30 31 32 33 34 35 36 37 38 39 40 41 42 43 44 45 46 47 48 49 50
000
ASUS42 KRAH 281110
RWRRAH
NORTH CAROLINA WEATHER ROUNDUP
NATIONAL WEATHER SERVICE RALEIGH NC
700 AM EDT SAT MAR 28 2015

NOTE: "FAIR" INDICATES FEW OR NO CLOUDS BELOW 12,000 FEET WITH NO
SIGNIFICANT WEATHER AND/OR OBSTRUCTIONS TO VISIBILITY.

NCZ001-053-055-056-065-067-281200-
WESTERN NORTH CAROLINA

CITY           SKY/WX    TMP DP  RH WIND       PRES   REMARKS
ASHEVILLE      CLOUDY    28  19  69 N15G25    29.97R WCI  16
JEFFERSON      FLURRIES  21  12  68 NW13G21   29.87R WCI   8
MORGANTON      MOCLDY    32  19  56 N5        30.02R WCI  28
HICKORY        PTCLDY    32  19  58 NW13      29.96R WCI  22
RUTHERFORDTON  PTCLDY    31  21  65 CALM      29.99R
MOUNT AIRY     MOCLDY    32  14  48 NW12G18   29.99R WCI  23
BOONE          FLURRIES  23  14  68 N14G24    29.89R WCI  10
$$

NCZ021-022-025-041-071-084-088-281200-
CENTRAL NORTH CAROLINA

CITY           SKY/WX    TMP DP  RH WIND       PRES   REMARKS
CHARLOTTE      PTCLDY    35  24  64 NW5       29.98R WCI  31
GREENSBORO     PTCLDY    33  20  58 NW8       29.95R WCI  26
WINSTON-SALEM  PTCLDY    33  20  58 NW12      29.97R WCI  24
RALEIGH-DURHAM PTCLDY    36  27  69 CALM      29.95R
FORT BRAGG     CLOUDY    39  33  80 NW8       29.95R WCI  33
FAYETTEVILLE   CLOUDY    41  36  82 NW5       29.96R
BURLINGTON     CLEAR     35  23  61 NW9       29.95R WCI  28
LAURINBURG     CLOUDY    41  32  70 N8        29.98R
$$

NCZ011-015-027-028-043-044-047-080-103-281200-
NORTHEASTERN NORTH CAROLINA

CITY           SKY/WX    TMP DP  RH WIND       PRES   REMARKS
ROCKY MT-WILSO CLOUDY    36  34  92 CALM      29.94R
GREENVILLE     DRIZZLE   37  36  93 NW8       29.96R WCI  31
WASHINGTON     PTCLDY    38  36  89 NW6       29.92R WCI  34
ELIZABETH CITY CLOUDY    39  34  82 NW13      29.88R WCI  31
MANTEO         CLOUDY    42  36  80 N10G17    29.86R
CAPE HATTERAS  CLOUDY    42  36  79 NW12G22   29.86R
$$

NCZ078-087-090-091-093-098-101-281200-
SOUTHEASTERN NORTH CAROLINA

CITY           SKY/WX    TMP DP  RH WIND       PRES   REMARKS
LUMBERTON      CLOUDY    42  38  85 N6        29.96R
GOLDSBORO      CLOUDY    38  38  99 N8        29.93R WCI  33
KINSTON        LGT RAIN  37  36  93 N9        29.95R WCI  31
KENANSVILLE    CLOUDY    39  35  84 N6        29.95R WCI  35
NEW BERN       CLOUDY    41  37  86 NW9       29.93R
CHERRY POINT   CLOUDY    41  37  86 NW10      29.92R
BEAUFORT       PTCLDY    41  38  89 NW15      29.90R
JACKSONVILLE   LGT RAIN  41  38  89 NW10      29.93R
WILMINGTON     RAIN      42  39  89 NW17      29.94R FOG
$$



USA.gov is the U.S. government's official web portal to all federal, state and local government web resources and services.